Simultaneous Nadir Overpasses (SNOs) Predictions

Prediction of SNOs between AQUA and NOAA-19 Satellite Orbit:

Table of predicted SNOs for the next 14.0 days since TLE Epoch: 3/22/2019
Index Date (AQUA) Time (AQUA) Lat,Lon (AQUA) SZA (AQUA ) Date (NOAA-19) Time (NOAA-19) Lat,Lon (NOAA-19) SZA (NOAA-19 ) Distance(km) Time Diff (sec)
1 03/23/2019 11:08:03 -80.50, 157.90 98.65 03/23/2019 11:08:16 -80.52, 157.96 98.64 2.31 13
2 03/25/2019 16:41:48 80.50,-105.51 80.46 03/25/2019 16:41:45 80.52,-105.42 80.47 2.49 3
3 03/27/2019 22:15:33 -80.49, -8.83 100.45 03/27/2019 22:15:12 -80.50, -8.94 100.42 2.66 21
4 03/27/2019 23:05:00 80.51, 158.62 79.57 03/27/2019 23:06:13 80.52, 158.71 79.55 2.57 73
5 03/30/2019 03:49:18 80.49, 87.73 78.67 03/30/2019 03:48:42 80.50, 87.67 78.70 1.63 36
6 03/30/2019 04:38:45 -80.50,-104.74 101.33 03/30/2019 04:39:39 -80.52,-104.65 101.34 2.80 54
7 04/01/2019 09:23:03 -80.48,-175.66 102.22 04/01/2019 09:22:07 -80.50,-175.53 102.19 3.23 56
8 04/01/2019 10:12:29 80.50, -8.20 77.80 04/01/2019 10:13:09 80.50, -8.24 77.79 1.00 40
9 04/03/2019 14:56:47 80.49, -79.13 76.92 04/03/2019 14:55:37 80.49, -78.98 76.94 2.91 70
10 04/03/2019 15:46:14 -80.50, 88.38 103.08 04/03/2019 15:46:34 -80.50, 88.39 103.08 0.26 20




NCC Satellite Simultaneous Nadir Overpasses (SNOs) Prediction Service
